Regional Weather Roundup
Issued by NWS Jackson, KY

Home | Current Version | Previous Version | Text Only | Print | Product List | Glossary On
Versions: 1 2 3 4 5 6 7 8 9 10 11 12 13 14 15 16 17 18 19 20 21 22 23 24 25 26 27 28 29 30 31 32 33 34 35 36 37 38 39 40 41 42 43 44 45 46 47 48 49 50
000
ASUS43 KJKL 051510
RWRJKL

EAST KENTUCKY HOURLY WEATHER ROUNDUP
NATIONAL WEATHER SERVICE JACKSON KY
1100 AM EDT SUN JUL 05 2015

NOTE: "FAIR" INDICATES FEW OR NO CLOUDS BELOW 12,000 FEET WITH
NO SIGNIFICANT WEATHER AND/OR OBSTRUCTIONS TO VISIBILITY.

* THESE REPORTS ARE NOT UNDER NWS QUALITY CONTROL AND MAY NOT
  REPORT WEATHER SUCH AS PRECIPITATION AND FOG.

KYZ079-080-083-085-087-088-110-112-115-119-120-051600
...EASTERN KENTUCKY...

CITY           SKY/WX    TMP DP  RH WIND       PRES   REMARKS
JACKSON        CLOUDY    71  68  90 CALM      30.11S
LONDON         RAIN      69  63  81 NE6       30.09F
SOMERSET*      CLOUDY    68  68 100 NE3       30.10S
MONTICELLO*    PTSUNNY   72  70  93 CALM      30.11S
MIDDLESBORO*   CLOUDY    70  68  95 CALM      30.08F
HARLAN APT*      N/A     70  70 100 CALM      30.10F
HAZARD APT*    RAIN      70  70 100 CALM      30.11S VSB 1
BLACK MTN*       N/A     68  64  88 N1          N/A
PIKEVILLE APT* CLOUDY    68  68 100 CALM      30.12S
BIG SANDY*     DRIZZLE   69  69  99 CALM      30.12S
MOREHEAD APT*  LGT RAIN  66  63  88 NE3       30.13F
$$

KYZ035-036-041-042-044-050-067-078-099-051600
...CENTRAL KENTUCKY...

CITY           SKY/WX    TMP DP  RH WIND       PRES   REMARKS
MT STERLING*   LGT RAIN  68  68 100 CALM      30.12S
FLEMING/MASON* SUNNY     70  63  78 SE5       30.13S
DANVILLE*      LGT RAIN  70  68  94 CALM      30.10S
RICHMOND*      CLOUDY    68  66  94 E5        30.09S
LEXINGTON      CLOUDY    71  64  78 E6        30.09S
FRANKFORT      CLOUDY    74  60  61 E7        30.09R
$$

KYZ091>093-OHZ055-061-077-WVZ005-015-034-035-042-051600
...SOUTHERN OHIO/WEST VIRGINIA...

CITY           SKY/WX    TMP DP  RH WIND       PRES   REMARKS
COVINGTON      CLOUDY    75  60  59 E7        30.11R
COLUMBUS       CLOUDY    75  60  59 E6        30.11S
DAYTON         CLOUDY    76  61  59 VRB5      30.13R
WILMINGTON     CLOUDY    72  61  68 VRB5      30.12R
HUNTINGTON     CLOUDY    69  67  93 SW3       30.10S
CHARLESTON     PTSUNNY   73  65  75 CALM      30.10S
PINEVILLE*     CLOUDY    73  70  91 MISG      30.19S
BECKLEY        CLOUDY    70  63  78 E8        30.18S
BLUEFIELD      CLOUDY    70  64  81 VRB5      30.20S
$$

VAZ002-007-008-TNZ017-027-036-066-071-051600
...SOUTHWEST VIRGINIA/EAST TENNESSEE...

CITY           SKY/WX    TMP DP  RH WIND       PRES   REMARKS
WISE*          CLOUDY    72  68  88 CALM      30.16F
JONESVILLE*      N/A    N/A N/A N/A MISG        N/A
ABINGDON*      PTSUNNY   76  68  76 E8        30.13F
BRISTOL        MOSUNNY   77  68  73 E6        30.10F
KNOXVILLE      PTSUNNY   74  67  78 S15       30.07F
OAK RIDGE      LGT RAIN  70  68  93 VRB3      30.09S FOG
CROSSVILLE     LGT RAIN  70  65  84 VRB7      30.12S
NASHVILLE      CLOUDY    73  72  96 W5        30.10S FOG
$$

...KEY TO REMARKS...
VSB - VISIBILITY IN MILES
WCI - WIND CHILL INDEX
HX  - HEAT INDEX

$$


USA.gov is the U.S. government's official web portal to all federal, state and local government web resources and services.